LILACSAT-2

Last updated on Tue Sep 16 2025 00:03:09 GMT+0000 (Coordinated Universal Time)

1 40908U 15049K 25258.59880828 .00014953 00000+0 36205-3 0 9990 2 40908 97.5034 281.4423 0009695 156.3527 203.8166 15.41157376553316
UTC large
Height (km)
Speed (km/s)
/
Latitude / Longitude
Inclination (degrees)
Orbital Period (minutes)
Azimuth
Elevation
Range (km)
Doppler Factor

Next 0 passes for location: London (51.5072 / 0.1276)

Sorry there are no passes over London.